Regional Weather Roundup
Issued by NWS

Home | Current Version | Previous Version | Text Only | Print | Product List | Glossary Off
Versions: 1 2 3 4 5 6 7 8 9 10 11 12 13 14 15 16 17 18 19 20 21 22 23 24 25 26 27

000
ASUS45 KTFX 210110
RWRMT
MONTANA REGIONAL WEATHER ROUNDUP
NATIONAL WEATHER SERVICE GREAT FALLS MT
600 PM MST MON FEB 20 2017

NOTE: "FAIR" INDICATES FEW OR NO CLOUDS BELOW 12000 FEET WITH NO
SIGNIFICANT WEATHER AND/OR OBSTRUCTIONS TO VISIBILITY.

MTZ001>007-043-210200-
WEST OF THE DIVIDE

CITY           SKY/WX    TMP DP  RH WIND       PRES   REMARKS
KALISPELL      LGT RAIN  34  33  96 SW9       29.59R WCI  27
MISSOULA       RAIN      35  35 100 CALM      29.68R FOG
BUTTE          CLOUDY    39  30  70 S8        29.69S
MULLAN PASS    LGT SNOW  31  31 100 SW23G40   29.57R VSB 3/4 WCI  18
ANACONDA         N/A     43  30  61 S18G25    29.66S
DEER LODGE       N/A     43  30  61 S8        29.66S
EUREKA           N/A     36  34  93 SE3       29.54S
HAMILTON         N/A     48  30  49 S14       29.64R
LIBBY            N/A     34  34 100 CALM      29.54R
RONAN            N/A     37  35  92 E1        29.69S
$$

MTZ008-052>055-210200-
SOUTHWEST MONTANA

CITY           SKY/WX    TMP DP  RH WIND       PRES   REMARKS
BOZEMAN        CLOUDY    48  32  53 W17       29.70R
DILLON         CLOUDY    41  32  70 S25G35    29.72S
W YELLOWSTONE  LGT SNOW  32  32 100 SW14G26   29.84R VSB 3/4 WCI  22
ENNIS          MOCLDY    41  30  65 S20G30    29.82R
THREE FORKS      N/A     45 -23   5 CALM      29.72S
TWIN BRIDGES     N/A     42  30  62 SE8       29.75R
$$

MTZ009-010-012-014-046-048-049-054-210200-
EAST SLOPES AND CENTRAL MONTANA

CITY           SKY/WX    TMP DP  RH WIND       PRES   REMARKS
CUT BANK       PTCLDY    38  30  73 SW15      29.53S WCI  29
GREAT FALLS    CLOUDY    41  32  70 SW10      29.59R
MALMSTROM AFB  CLOUDY    41  34  75 SW10      29.61R
HELENA         CLOUDY    50  30  46 SW7       29.61R
AUGUSTA        MOCLDY    37  35  92 W8G18     29.57R WCI  30
BOWMANS CRNR   LGT RAIN  37  32  81 S15       29.55F WCI  28
CHOTEAU          N/A     39  34  81 SW14      29.60R WCI  31
CONRAD           N/A     43  38  82 SE2       29.63R
POWER            N/A     41  32  72 W10G20    29.57R
RAYNESFORD     MOCLDY    43  35  71 SW14      29.61R
ULM              N/A     42  32  65 MISG      29.60S
$$

MTZ011-013-016-021-045-047-050-051-210200-
NORTH CENTRAL MONTANA

CITY           SKY/WX    TMP DP  RH WIND       PRES   REMARKS
HAVRE          CLOUDY    43  37  79 SW12      29.56F
LEWISTOWN      MOCLDY    46  33  60 SW22G37   29.64R
N BAR RANCH    CLOUDY    46  27  46 W6G13     29.65R
CHINOOK          N/A     48  36  61 SW6       29.57S
DENTON           N/A     43  35  75 W21G37    29.58R
FORT BENTON      N/A     45  39  81 N5        29.60R
GEYSER         MOCLDY    42  35  76 SW9       29.61R
GRASS RANGE    MOCLDY    45  32  59 NW6       29.59R
JUDITH GAP       N/A     40  31  71 SW13      29.65R
ROY            LGT RAIN  44  37  76 MISG      29.61R
STANFORD         N/A     41  33  73 NW8       29.62R
WINIFRED       MOCLDY    45  36  68 W22G29    29.61R
$$

MTZ017>020-022>027-061-062-210200-
NORTHEAST MONTANA

CITY           SKY/WX    TMP DP  RH WIND       PRES   REMARKS
GLASGOW        PTCLDY    41  31  67 MISG      29.59F
JORDAN           N/A     52  31  44 SW3       29.61S
SIDNEY         PTCLDY    42  25  50 CALM      29.67S
WOLF POINT     PTCLDY    39  30  70 E7        29.63F
PLENTYWOOD       N/A     45  25  45 CALM      29.66F
POPLAR           N/A     43  28  56 E8        29.65F
$$

MTZ028>42-056>058-210200-
SOUTHCENTRAL AND SOUTHEAST MONTANA

CITY           SKY/WX    TMP DP  RH WIND       PRES   REMARKS
BAKER          CLEAR     39  27  62 SE9       29.69F
BILLINGS       CLOUDY    54  28  36 SW23G29   29.63R
LIVINGSTON     CLOUDY    49  29  46 SW39G49   29.65R
MILES CITY     CLOUDY    50  29  44 S8        29.64F
BIG TIMBER     CLOUDY    52  28  40 W23G35    29.68R
FORSYTH          N/A     54  27  35 S10       29.63S
HARLOWTON      MOCLDY    43  33  68 W12       29.66R
LAUREL           N/A     53  27  37 S13       29.68R
$$

REGIONAL REPORTS...DAKOTAS

CITY           SKY/WX    TMP DP  RH WIND       PRES   REMARKS
WILLISTON      CLEAR     34  29  82 CALM      29.68S
MINOT          CLEAR     41  34  76 SW10      29.69R
DICKINSON      CLEAR     37  25  61 S7        29.70S WCI  32
BEACH            N/A    N/A N/A N/A MISG        N/A
CROSBY           N/A     34  34 100 S10       29.69S WCI  26
TIOGA            N/A     37  36  93 SW5       29.71R
WATFORD CITY     N/A     37  28  70 SE8       29.70S WCI  31
BISMARCK       CLEAR     38  33  82 S6        29.75R
GRAND FORKS    PTCLDY    36  30  79 SW6       29.69R WCI  31
FARGO          CLEAR     35  34  96 W8        29.73R WCI  29
BUFFALO SD       N/A     49  24  37 SE8       29.67F
RAPID CITY     PTCLDY    54  22  28 SW5       29.80R
$$

REGIONAL REPORTS...WYOMING/IDAHO/WASHINGTON

CITY           SKY/WX    TMP DP  RH WIND       PRES   REMARKS
GILLETTE       CLOUDY    54  25  32 SW22      29.76R
SHERIDAN       CLOUDY    56  23  27 VRB7      29.68F
BUFFALO WY     CLOUDY    52  25  35 N9        29.76F
CODY           CLOUDY    45  31  58 SW15G23   29.79R
YELLOWSTONE LA   N/A     31  30  96 VRB7      29.87R WCI  24
IDAHO FALLS    CLOUDY    42  36  79 S24G36    29.89S
SALMON         CLOUDY    43  34  70 S15       29.76R
BOISE          CLOUDY    51  40  65 E6        29.78F
SPOKANE        CLOUDY    37  34  89 SW22G33   29.58R WCI  26
$$

REGIONAL REPORTS...ALBERTA

CITY           SKY/WX    TMP DP  RH WIND       PRES   REMARKS
EDMONTON       CLOUDY    32  27  80 E3        29.61R
CALGARY        CLOUDY    30  27  86 NE3       29.52R
LETHBRIDGE     PTCLDY    37  28  70 SW5       29.50S
MEDICINE HAT   MOCLDY    46  25  42 CALM      29.54F
WATERTON GATE    N/A     37  28  70 W9          N/A  WCI  31
CARDSTON         N/A     36  28  75 NW3         N/A
MILK RIVER       N/A     37  28  70 S8          N/A  WCI  31
$$

REGIONAL REPORTS...SASKATCHEWAN

CITY           SKY/WX    TMP DP  RH WIND       PRES   REMARKS
SWIFT CURRENT  MOCLDY    37  28  70 E7        29.58F
REGINA         PTCLDY    36  32  87 N2        29.64S
SASKATOON      CLOUDY    34  30  86 SW8       29.65R WCI  27
CYPRESS HILLS    N/A     34  25  69 S3          N/A
VAL MARIE        N/A     37  28  70 E3          N/A
ROCKGLEN         N/A     37  25  60 S5          N/A
ASSINIBOIA       N/A     32  28  86 NE2         N/A
$$




USA.gov is the U.S. government's official web portal to all federal, state and local government web resources and services.